Location: Caltech
(34.1382°N, 118.1253°W)
Time: 07:00:15
(UTC-07:00)

OPAL - Visible Passes

Search period start: 24 March 2017 00:00
Search period end: 03 April 2017 00:00
Orbit: 743 x 795 km, 100.2° (Epoch: 22 March)

Date Brightness Start Highest point End Pass type
(mag) Time Alt. Az. Time Alt. Az. Time Alt. Az.
24 Mar 10.1 04:44:52 10° NE 04:48:05 17° E 04:51:16 10° SE visible
24 Mar 7.8 06:22:23 10° N 06:27:07 44° WNW 06:31:49 10° SW visible
25 Mar 7.6 05:46:44 10° NNE 05:51:46 78° ESE 05:56:42 10° SSW visible
26 Mar 9.2 05:11:45 10° NE 05:16:12 32° E 05:20:37 10° SSE visible
27 Mar 10.3 04:38:10 10° ENE 04:40:29 13° E 04:42:48 10° ESE visible
27 Mar 7.6 06:14:46 10° N 06:19:39 56° WNW 06:24:29 10° SSW visible
28 Mar 8.0 05:39:18 10° NNE 05:44:14 61° ESE 05:49:07 10° S visible
29 Mar 9.6 05:04:33 10° NE 05:08:39 25° E 05:12:41 10° SSE visible
30 Mar 7.4 06:07:12 10° N 06:12:10 71° WNW 06:17:05 10° SSW visible
31 Mar 8.5 05:31:54 10° NNE 05:36:43 47° ESE 05:41:27 10° S visible
01 Apr 10.0 04:57:28 10° NE 05:01:04 20° E 05:04:38 10° SE visible
02 Apr 7.5 05:59:40 10° NNE 06:04:40 89° W 06:09:37 10° SSW visible
